Find Starlink 31463

NORAD ID: 59296 Int'l Des: 2024-056 Owner: SPXS Country: US Constellation: starlink operational
LEOCIRCULAR

Live Position

Loading 3D Globe...

About Starlink 31463

Description loading...

Upcoming Passes

Passes for default location (London). Set your location on the main map for personalized predictions.

Altitude History

Loading altitude history...

Two-Line Element Set

1 59296U 24056A 26132.66122669 .00000099 00000-0 13117-4 0 9995
2 59296 43.0027 225.4863 0001468 259.8086 100.2600 15.27582860120989
Epoch: May 12, 2026 • Age: 21 hours

Current Status

Altitude 485.2 km
Velocity 7.63 km/s
Sub-Earth Point 34.31°N, 151.64°W
Launch Date Mar 24, 2024
Age 2.1 years
Type internet

Technical Details

Classification Payload
Mass 730.00 kg
Dry Mass 700.00 kg
Total Mass 730.00 kg
Length 0.30 m
Diameter 4.10 m
Span 29.00 m
Shape Box + pan
Manufacturer SPXS
Bus Type Starlink V2M
Phase Status In Orbit
Owner/State SPXS/US

Most Searched